Tracking 18032 objects as of 25-March-2017
HD Live streaming from Space Station
objects crossing your sky now

COSMOS 2251 DEB

Track COSMOS 2251 DEB now!
10-day predictions


NORAD ID: 35451
Int'l Code: 1993-036AKV
Perigee: 566.4 km
Apogee: 720.6 km
Inclination: 73.9 °
Period: 97.4 minutes
Semi major axis: 7014 km
RCS: 0.0039 m2 (small)
Launch date: June 16, 1993
Source: Commonwealth of Independent States (former USSR) (CIS)
Launch site: PLESETSK MISSILE AND SPACE COMPLEX (PKMTR)

Note: This is SATELLITE DEBRIS
Your satellite tracking list
Your tracking list is empty





NASA's NSSDC Master Catalog

Two Line Element Set (TLE):
1 35451U 93036AKV 17083.41724413 +.00000767 +00000-0 +10189-3 0  9996
2 35451 073.9478 001.7208 0109916 283.9812 074.9160 14.77788335200670
Source of the keplerian elements: AFSPC